Location: Newark
(48.0000°N, 67.0000°E)
Time: 04:44:14
(UTC+00:00)

Vanguard 2 - Pass Details

Date: 21 February 2020
Orbit: 552 x 2938 km, 32.9° (Epoch: 04 April)

Event Time Altitude Azimuth Distance (km) Brightness Sun altitude
Exits shadow 00:22:07 23° 231° (SW) 3,793 10.5 -22.0°
Maximum altitude 00:30:44 45° 175° (S) 3,272 10.6 -20.5°
Drops below altitude 10° 00:46:44 10° 112° (ESE) 5,768 13.0 -17.9°
Sets 00:51:32 0° 107° (ESE) 6,764 13.7 -17.1°
